Retour au catalogue

STARLINK-32184

ActifCommunicationsVLEO
NORAD 60942·PAYLOAD·🇺🇸 United States

Lancé Aug 31, 2024 depuis Vandenberg Space Force Base

Loading…

Prochains Passages (prochaines 24 heures)

TLE

FraisSource: CelesTrak SupGP

Époque: Sep 15, 2026, 02:58 UTC

1 60942C 24155U   26258.12409722  .00056313  00000+0  16641-2 0  2583
2 60942  53.1579 326.5472 0001166  97.0414 115.0286 15.34357293    17

Suivez STARLINK-32184 en temps réel avec AllMySat

Download on the App Store